[Date Prev][Date Next][Thread Prev][Thread Next] - [Date Index][Thread Index][Author Index]

2 Line ISS Keps 2-6



ISS
1 25544U 98067A   03037.51899306  .00028139  00000-0  34121-3 0  6606
2 25544  51.6375 316.5295 0005568 117.5764 237.0352 15.60385930240610


----
Via the sarex mailing list at AMSAT.ORG courtesy of AMSAT-NA.
To unsubscribe, send "unsubscribe sarex" to Majordomo@amsat.org



AMSAT Top AMSAT Home